Total_Precipitation_Accumulation
0.01 0.02 0.05 0.16 1.43 0.17 0.12 0.13 0.03 0.00 0.01 0.04 0.01 0.01 0.01 0.20 0.16 0.27 0.01 0.00 0.00 0.00 0.00 0.03 0.05 0.03 0.02 0.02 0.02 0.03 0.02 0.04 0.05 0.06 0.01 0.00 0.00 0.00 0.01 0.01 0.02 0.00 0.00 0.02 0.01 0.02 0.01 0.01 0.03
0.03 0.07 0.16 0.38 1.47 0.79 0.38 0.12 0.05 0.00 0.04 0.06 0.02 0.05 0.00 0.02 0.00 0.00 0.00 0.00 0.00 0.00 0.00 0.00 0.02 0.03 0.03 0.03 0.04 0.03 0.02 0.01 0.03 0.03 0.01 0.00 0.00 0.00 0.00 0.00 0.00 0.02 0.01 0.01 0.01 0.02 0.01 0.00 0.01
0.07 0.22 0.32 1.09 0.94 1.85 1.08 0.06 0.05 0.04 0.05 0.05 0.04 0.02 0.00 0.00 0.01 0.00 0.00 0.00 0.00 0.00 0.00 0.00 0.03 0.02 0.01 0.02 0.03 0.02 0.02 0.01 0.03 0.03 0.00 0.00 0.00 0.00 0.00 0.00 0.00 0.01 0.04 0.01 0.02 0.02 0.01 0.01 0.02
0.08 0.30 0.81 1.44 1.08 0.74 0.44 0.11 0.07 0.10 0.08 0.05 0.03 0.00 0.00 0.01 0.00 0.00 0.00 0.00 0.00 0.00 0.00 0.01 0.02 0.00 0.00 0.01 0.01 0.02 0.02 0.02 0.02 0.00 0.00 0.00 0.00 0.00 0.01 0.02 0.00 0.01 0.10 0.09 0.08 0.06 0.11 0.16 0.10
0.02 0.26 1.06 0.65 0.45 0.24 0.20 0.11 0.08 0.05 0.06 0.04 0.00 0.00 0.00 0.00 0.00 0.00 0.00 0.01 0.00 0.00 0.00 0.00 0.02 0.01 0.01 0.02 0.02 0.02 0.02 0.01 0.03 0.07 0.03 0.02 0.01 0.03 0.09 0.13 0.11 0.07 0.01 0.02 0.07 0.07 0.11 0.20 0.32
0.01 0.04 0.12 0.13 0.07 0.04 0.08 0.03 0.05 0.06 0.03 0.03 0.01 0.01 0.01 0.00 0.00 0.00 0.00 0.01 0.03 0.00 0.00 0.00 0.01 0.02 0.03 0.03 0.03 0.08 0.12 0.11 0.12 0.11 0.07 0.04 0.00 0.02 0.13 0.18 0.09 0.08 0.04 0.01 0.04 0.02 0.03 0.02 0.07
0.00 0.02 0.02 0.00 0.01 0.00 0.02 0.01 0.02 0.06 0.02 0.06 0.02 0.05 0.03 0.01 0.00 0.00 0.03 0.06 0.07 0.06 0.00 0.00 0.00 0.01 0.02 0.06 0.07 0.12 0.16 0.16 0.14 0.09 0.03 0.01 0.00 0.01 0.14 0.16 0.14 0.09 0.06 0.02 0.02 0.00 0.01 0.02 0.01
0.02 0.00 0.00 0.01 0.00 0.00 0.00 0.00 0.01 0.02 0.00 0.03 0.04 0.05 0.07 0.02 0.00 0.00 0.03 0.13 0.06 0.04 0.00 0.00 0.00 0.00 0.05 0.10 0.12 0.14 0.21 0.29 0.18 0.09 0.04 0.04 0.03 0.06 0.18 0.27 0.21 0.09 0.08 0.05 0.01 0.01 0.03 0.05 0.05
0.01 0.00 0.00 0.00 0.00 0.00 0.00 0.00 0.02 0.08 0.04 0.01 0.02 0.01 0.01 0.00 0.00 0.00 0.02 0.08 0.26 0.18 0.05 0.01 0.00 0.00 0.05 0.23 0.37 0.49 0.50 0.47 0.38 0.25 0.15 0.09 0.08 0.72 0.45 0.25 0.37 0.25 0.21 0.14 0.02 0.02 0.01 0.01 0.04
0.00 0.00 0.00 0.00 0.00 0.00 0.00 0.00 0.00 0.09 0.10 0.01 0.02 0.00 0.00 0.00 0.00 0.00 0.01 0.05 0.08 0.04 0.09 0.02 0.01 0.02 0.10 0.35 0.54 0.95 0.78 0.97 0.71 0.59 0.38 0.11 0.35 1.16 1.90 0.85 0.26 0.37 0.50 0.35 0.08 0.01 0.00 0.00 0.12
0.00 0.00 0.00 0.00 0.00 0.00 0.00 0.00 0.00 0.04 0.07 0.00 0.01 0.00 0.00 0.01 0.03 0.02 0.00 0.02 0.01 0.02 0.01 0.00 0.01 0.10 0.26 0.24 0.16 0.32 0.75 0.52 0.23 0.24 0.22 0.10 0.13 0.55 1.52 0.89 0.25 0.35 0.39 0.43 0.16 0.02 0.03 0.03 0.48
0.00 0.00 0.00 0.00 0.00 0.00 0.00 0.01 0.00 0.00 0.00 0.00 0.00 0.00 0.00 0.00 0.00 0.00 0.01 0.03 0.02 0.00 0.02 0.01 0.00 0.21 0.27 0.18 0.04 0.05 0.14 0.14 0.10 0.10 0.08 0.14 0.06 0.28 1.37 0.42 0.18 0.40 0.41 0.36 0.27 0.08 0.08 0.12 0.17
0.00 0.00 0.00 0.00 0.00 0.00 0.00 0.00 0.00 0.00 0.00 0.00 0.00 0.00 0.00 0.00 0.00 0.00 0.00 0.02 0.01 0.01 0.02 0.02 0.03 0.41 0.31 0.21 0.06 0.12 0.31 0.18 0.07 0.07 0.05 0.08 0.06 0.20 0.54 0.27 0.29 0.31 0.56 0.31 0.21 0.14 0.13 0.06 0.05
0.00 0.00 0.00 0.00 0.00 0.00 0.00 0.00 0.01 0.00 0.00 0.00 0.00 0.00 0.00 0.00 0.00 0.01 0.01 0.08 0.00 0.01 0.07 0.03 0.01 0.05 0.22 0.14 0.18 0.18 0.13 0.16 0.14 0.07 0.09 0.03 0.07 0.10 0.19 0.16 0.15 0.11 0.33 0.18 0.10 0.08 0.06 0.05 0.03
0.00 0.00 0.00 0.00 0.00 0.00 0.02 0.03 0.00 0.00 0.00 0.00 0.00 0.00 0.00 0.00 0.00 0.00 0.00 0.02 0.01 0.03 0.03 0.04 0.02 0.01 0.16 0.17 0.16 0.09 0.08 0.13 0.16 0.05 0.02 0.06 0.09 0.14 0.22 0.17 0.08 0.02 0.13 0.24 0.05 0.01 0.07 0.11 0.04
0.00 0.00 0.00 0.00 0.00 0.00 0.01 0.01 0.00 0.00 0.00 0.00 0.00 0.00 0.00 0.00 0.00 0.00 0.00 0.00 0.01 0.03 0.02 0.02 0.02 0.01 0.01 0.07 0.06 0.02 0.04 0.03 0.08 0.11 0.01 0.00 0.02 0.10 0.25 0.22 0.09 0.09 0.05 0.16 0.13 0.09 0.06 0.20 0.05
0.00 0.00 0.00 0.00 0.00 0.00 0.00 0.00 0.00 0.00 0.00 0.00 0.00 0.00 0.00 0.00 0.00 0.00 0.01 0.02 0.02 0.06 0.06 0.01 0.01 0.01 0.00 0.02 0.07 0.01 0.02 0.02 0.03 0.03 0.02 0.01 0.01 0.01 0.23 0.39 0.24 0.22 0.07 0.14 0.15 0.15 0.23 0.17 0.20
0.00 0.00 0.00 0.00 0.00 0.00 0.00 0.00 0.00 0.00 0.00 0.00 0.00 0.00 0.00 0.00 0.00 0.00 0.00 0.00 0.01 0.06 0.08 0.05 0.01 0.00 0.01 0.06 0.06 0.04 0.02 0.06 0.09 0.02 0.00 0.00 0.01 0.01 0.11 0.33 0.26 0.19 0.31 0.24 0.10 0.34 0.33 0.25 0.21
0.00 0.00 0.00 0.00 0.00 0.00 0.00 0.00 0.00 0.00 0.01 0.00 0.01 0.01 0.00 0.00 0.00 0.00 0.00 0.00 0.00 0.02 0.03 0.02 0.00 0.00 0.01 0.06 0.14 0.08 0.09 0.11 0.12 0.08 0.03 0.00 0.00 0.01 0.03 0.15 0.31 0.31 0.26 0.33 0.24 0.51 0.75 0.32 0.09
0.00 0.00 0.00 0.00 0.00 0.00 0.00 0.00 0.00 0.00 0.01 0.00 0.04 0.20 0.02 0.00 0.00 0.00 0.00 0.00 0.00 0.01 0.01 0.00 0.01 0.01 0.00 0.02 0.05 0.06 0.03 0.58 0.68 0.22 0.11 0.03 0.04 0.06 0.05 0.11 0.31 0.33 0.29 0.24 0.41 0.77 0.69 0.26 0.12
0.00 0.00 0.00 0.00 0.00 0.00 0.00 0.00 0.00 0.00 0.00 0.00 0.03 0.05 0.19 0.02 0.00 0.00 0.00 0.00 0.00 0.00 0.00 0.00 0.00 0.00 0.00 0.02 0.05 0.16 0.42 0.97 0.56 0.66 0.20 0.18 0.27 0.25 0.44 0.56 0.58 0.55 0.37 0.39 0.36 0.51 0.59 0.48 0.28
0.00 0.00 0.00 0.00 0.00 0.00 0.00 0.00 0.00 0.00 0.00 0.00 0.01 0.06 0.07 0.03 0.03 0.02 0.00 0.01 0.00 0.01 0.01 0.01 0.01 0.00 0.00 0.01 0.02 0.17 0.49 0.45 0.40 0.32 0.16 0.12 0.54 0.56 0.66 0.92 0.46 0.48 0.31 0.29 0.28 0.37 0.50 0.80 0.58
0.00 0.00 0.00 0.00 0.00 0.00 0.00 0.00 0.00 0.00 0.00 0.00 0.01 0.07 0.24 0.42 0.03 0.02 0.00 0.02 0.03 0.03 0.01 0.01 0.04 0.00 0.00 0.00 0.03 0.07 0.22 0.20 0.19 0.25 0.34 0.33 0.43 0.73 1.02 0.66 0.52 0.25 0.22 0.16 0.17 0.30 0.49 1.03 0.88
0.00 0.00 0.00 0.00 0.00 0.00 0.00 0.00 0.00 0.01 0.00 0.00 0.02 0.03 0.08 0.18 0.07 0.07 0.03 0.03 0.03 0.03 0.03 0.04 0.07 0.05 0.02 0.00 0.02 0.18 0.51 0.30 0.40 0.77 0.36 0.25 0.44 1.14 2.20 0.81 0.45 0.34 0.41 0.45 0.15 0.12 0.28 0.49 0.60
0.00 0.00 0.00 0.00 0.00 0.00 0.00 0.00 0.07 0.16 0.08 0.00 0.00 0.04 0.09 0.21 0.42 0.10 0.06 0.06 0.06 0.03 0.02 0.03 0.07 0.08 0.04 0.02 0.01 0.01 0.12 0.27 0.42 0.38 0.12 0.23 0.37 0.90 1.46 1.78 0.62 0.49 0.42 0.42 0.25 0.13 0.23 0.56 0.51
0.00 0.00 0.00 0.00 0.00 0.00 0.00 0.00 0.02 0.02 0.02 0.01 0.01 0.08 0.08 0.12 0.21 0.18 0.16 0.11 0.06 0.08 0.05 0.00 0.04 0.10 0.14 0.14 0.12 0.05 0.07 0.22 0.24 0.18 0.18 0.28 0.35 0.35 0.50 0.95 0.91 0.33 0.30 0.21 0.27 0.23 0.16 0.31 0.25
0.00 0.00 0.00 0.00 0.00 0.00 0.01 0.08 0.15 0.02 0.04 0.06 0.05 0.08 0.09 0.11 0.17 1.20 0.55 0.11 0.05 0.04 0.01 0.00 0.00 0.02 0.16 0.36 0.24 0.14 0.21 0.82 0.61 0.21 0.16 0.25 0.29 0.18 0.14 0.28 0.66 0.57 0.29 0.23 0.24 0.19 0.12 0.13 0.20
0.00 0.00 0.00 0.00 0.00 0.00 0.04 0.08 0.21 0.20 0.31 0.17 0.12 0.06 0.07 0.12 0.10 0.33 0.25 0.12 0.10 0.03 0.01 0.02 0.10 0.06 0.44 0.59 0.57 0.51 0.92 0.93 0.66 0.57 0.37 0.30 0.41 0.30 0.12 0.13 0.14 0.31 0.38 0.37 0.39 0.12 0.13 0.19 0.19
0.00 0.00 0.00 0.00 0.00 0.00 0.04 0.06 0.17 0.31 0.60 0.73 0.25 0.07 0.09 0.23 0.24 0.26 0.24 0.18 0.10 0.02 0.11 0.19 0.36 0.95 1.54 1.48 1.32 1.38 1.33 1.02 0.64 0.44 0.39 0.31 0.27 0.11 0.02 0.00 0.00 0.06 0.26 0.33 0.36 0.30 0.29 0.46 0.33
0.00 0.00 0.00 0.00 0.00 0.00 0.00 0.01 0.05 0.44 0.26 0.36 0.20 0.16 0.15 0.27 0.52 0.20 0.18 0.11 0.03 0.03 0.11 0.47 1.22 2.05 2.71 2.75 2.49 2.85 1.97 1.65 0.98 0.43 0.37 0.34 0.22 0.22 0.10 0.02 0.05 0.07 0.06 0.19 0.25 0.25 0.36 0.47 0.37